Regional Weather Roundup
Issued by NWS

Home | Current Version | Previous Version | Graphics & Text | Print | Product List | Glossary On
Versions: 1 2 3 4 5 6 7 8 9 10 11 12 13 14 15 16 17 18 19 20 21 22 23 24 25 26 27 28 29 30 31 32 33 34 35 36 37 38 39 40 41 42 43 44 45 46 47 48 49 50
000
ASUS43 KLOT 231206
RWRIL

ILLINOIS REGIONAL WEATHER ROUNDUP
NATIONAL WEATHER SERVICE CHICAGO/ROMEOVILLE IL
700 AM CDT TUE SEP 23 2014

NOTE: "FAIR" INDICATES FEW OR NO CLOUDS BELOW 12,000 FEET WITH NO
SIGNIFICANT WEATHER AND/OR OBSTRUCTIONS TO VISIBILITY.

* THESE STATIONS ARE NOT UNDER NWS QUALITY CONTROL. THEY ALSO MAY NOT
  REPORT WEATHER SUCH AS PRECIPITATION OR FOG.

ILZ001-002-007-009-015-016-024-231300-
NORTHWEST ILLINOIS

CITY           SKY/WX    TMP DP  RH WIND       PRES   REMARKS
MOLINE         CLEAR     42  41  96 CALM      30.30R
6HR MIN TEMP:  42; 6HR MAX TEMP:  48;

STERLING*      CLEAR     43  39  87 SE3       30.31R
SAVANNA*         N/A     43  41  95 CALM      30.30R FOG
$$

ILZ003-004-008-010-011-017-018-231300-
NORTH CENTRAL ILLINOIS

CITY           SKY/WX    TMP DP  RH WIND       PRES   REMARKS
ROCKFORD       CLEAR     45  41  86 CALM      30.33R
6HR MIN TEMP:  44; 6HR MAX TEMP:  50;

FREEPORT*      CLEAR     41  39  93 CALM      30.32S
ROCHELLE*      CLEAR     40  39  96 S5        30.32R
DE KALB*       CLEAR     43  40  91 S3        30.32S
PERU*          CLEAR     49  43  80 S3        30.33R
$$

ILZ005-006-012>014-019>023-231300-
NORTHEAST ILLINOIS

CITY           SKY/WX    TMP DP  RH WIND       PRES   REMARKS
CHICAGO-OHARE  CLEAR     52  43  71 CALM      30.31R
6HR MIN TEMP:  51; 6HR MAX TEMP:  54;

CHICAGO-MIDWAY PTCLDY    50  42  74 SW3       30.32R
6HR MIN TEMP:  50; 6HR MAX TEMP:  55;

AURORA         CLEAR     43  40  89 CALM      30.33R
6HR MIN TEMP:  41; 6HR MAX TEMP:  47;

LANSING*       CLEAR     44  42  90 S3        30.33R
JOLIET*        CLEAR     43  42  96 CALM      30.34R
WAUKEGAN       CLEAR     48  44  86 CALM      30.30R
6HR MIN TEMP:  47; 6HR MAX TEMP:  52;

DUPAGE AIRPORT CLEAR     46  44  93 S3        30.32R
6HR MIN TEMP:  46; 6HR MAX TEMP:  50;

KANKAKEE*      FOG       43  42  97 CALM      30.34R VSB 1/2
WHEELING       CLEAR     49  43  80 S3        30.33R
6HR MIN TEMP:  47; 6HR MAX TEMP:  51;

MORRIS*        CLEAR     44  44 100 CALM      30.32R FOG
ROMEOVILLE*    CLEAR     44  43  94 CALM      30.33R
NORTHERLY ISL    N/A     55  42  61 W10         N/A
$$

LMZ740>746-231300-
SOUTHERN LAKE MICHIGAN

STATION/POSITION SKY/WX   TEMP    WIND        PRES    VSBY  WAVE
                          AIR SEA DIR/SP/G                  HT/PER
                          (F)     (DEG/KT/KT) (MB)    (MI)  (FT/S)
SOUTHERN BUOY              60 62  230/ 10/ 12 1026.2R         2/ 4
WAUKEGAN HARBOR            52     260/ 11/ 13   N/A
BURNHAM HARBOR             55     250/  8/ 11   N/A
CALUMET HARBOR             51     220/  4/  6 1025.4R
MICHIGAN CITY 6N           56 63  200/  8/ 10   N/A           1/ 2
ST. JOSEPH                 58 64  190/  8/ 10   N/A           1/ 2
$$

ILZ025>027-034>036-040-047-049-050-058-095>099-231300-
WEST-CENTRAL ILLINOIS

CITY           SKY/WX    TMP DP  RH WIND       PRES   REMARKS
QUINCY         CLEAR     49  42  77 SE6       30.29R
GALESBURG*     CLEAR    N/A N/A N/A E3        30.31R
MACOMB*        CLEAR     41  41  99 E5        30.33R
JACKSONVILLE*  CLEAR     45  42  89 CALM      30.31S
PITTSFIELD*    CLEAR     45  43  92 CALM      30.31R
$$

ILZ028>032-037-038-041>044-048-051>054-059>061-231300-
CENTRAL ILLINOIS

CITY           SKY/WX    TMP DP  RH WIND       PRES   REMARKS
PONTIAC        CLEAR     43  43 100 CALM      30.33R
BLOOMINGTON    CLEAR     47  44  89 S7        30.33R
DECATUR        CLEAR     45  43  93 CALM      30.33R
PEORIA         CLEAR     48  44  86 CALM      30.32R
6HR MIN TEMP:  48; 6HR MAX TEMP:  51;

LACON*         CLEAR     43  41  93 CALM      30.32R
LINCOLN*       CLEAR     44  42  93 CALM      30.31S
SPRINGFIELD    CLEAR     46  42  86 CALM      30.31R
6HR MIN TEMP:  45; 6HR MAX TEMP:  49;

TAYLORVILLE    CLEAR     45  43  93 CALM      30.32R
$$

ILZ033-039-045-046-055>057-062-063-231300-
EAST-CENTRAL ILLINOIS

CITY           SKY/WX    TMP DP  RH WIND       PRES   REMARKS
CHAMPAIGN      CLEAR     46  45  96 SE7       30.33R
DANVILLE*      CLEAR     42  41  99 CALM      30.31R FOG
RANTOUL*       CLEAR     47  44  88 CALM      30.33S
MATTOON        CLEAR     44  42  93 CALM      30.31R
PARIS*         CLEAR     40  40 100 CALM      30.33S FOG
$$

ILZ079-100>102-231300-
SOUTHWEST ILLINOIS

CITY           SKY/WX    TMP DP  RH WIND       PRES   REMARKS
ALTON          PTCLDY    46  45  93 CALM      30.31R
BELLEVILLE     CLEAR     46  46  99 CALM      30.30R
CAHOKIA*       CLEAR     45  44  97 CALM      30.30R
SPARTA*        CLEAR     44  43  95 CALM      30.31R FOG
$$

ILZ064>066-069>071-074>076-080>082-084>086-088>090-092>094-231300-
SOUTH-CENTRAL ILLINOIS

CITY           SKY/WX    TMP DP  RH WIND       PRES   REMARKS
CARBONDALE     FOG       42  41  96 CALM      30.30R VSB 1/4
6HR MIN TEMP:  42; 6HR MAX TEMP:  46;

CAIRO*         FOG       45  43  91 CALM      30.28R VSB 1/4
EFFINGHAM*     CLEAR     44  42  91 CALM      30.32R
MARION         PTCLDY    43  43 100 MISG      30.30S
MT. VERNON     CLEAR     41  36  81 CALM      30.31R
CENTRALIA*     CLEAR     42  40  93 CALM      30.30S
SALEM*         CLEAR     45  45  98 CALM      30.31R
METROPOLIS*    CLEAR     45  45 100 CALM      30.28R FOG
$$

ILZ067-068-072-073-078-083-087-091-231300-
SOUTHEAST ILLINOIS

CITY           SKY/WX    TMP DP  RH WIND       PRES   REMARKS
LAWRENCEVILLE  CLEAR     44  43  96 NE3       30.33R FOG
FLORA*         CLEAR     44  44  99 CALM      30.32R
FAIRFIELD*     CLEAR    N/A N/A N/A CALM      30.31R
HARRISBURG*    CLEAR     43  43 100 CALM      30.31S
ROBINSON*      FOG       42  42 100 CALM      30.33S VSB<1/4
CARMI*         CLEAR     44  44 100 CALM      30.30S
$$

ABBREVIATIONS USED IN REMARKS
   TC - TEMPERATURE IN CELSIUS
  WCI - WIND CHILL INDEX
   HX - HEAT INDEX
  VSB - VISIBILITY
$$




USA.gov is the U.S. government's official web portal to all federal, state and local government web resources and services.